Forside
METAR-TAF:

METAR-TAF

Lufthavne :

Clintonville, Wisconsin, USA

Breddekreds: 44-36-50N, længdekreds: 088-43-53W, højde: 251 m

Aktuelle vejr

Denne rapport blev lavet for 21 minutter siden, kl. 16:55 UTC
Vind 8 kt fra sydvest
Temperatur 5°C
Fugtighed 56%
Tryk 1009 hPa
Sigt: 16.1 km
skyfri

METAR: KCLI 231655Z AUTO 23008KT 10SM CLR 05/M03 A2980 RMK AO2 T00521031

Tid: 11:16 (17:16 UTC)


TAF: fraværende

Vejrobservationer og prognoser fra mere end 4000 lufthavne (METAR og TAF).

De gule og røde prikker repræsenterer de meteorologiske stationer.

Flyt musen over at se navnet på stationen.

Så klik over at se vejr observationer og prognoser.

At skifte det kort: Klik på de grønne knapper med et sort kors for at zoome ind; på den grønne knap med en bindestreg for at zoome ud; eller på de grønne pile for tilstødende kort.


METAR-TAF: